Location: Gollag?dem
(16.8053°N, 80.8024°E)
Time: 14:25:01
(UTC+00:00)

Atlas Centaur 2 - Pass Details

Date: 13 August 2020
Orbit: 459 x 1310 km, 30.4° (Epoch: 24 September)

Event Time Altitude Azimuth Distance (km) Brightness Sun altitude
Exits shadow 22:16:25 19° 323° (NW) 2,158 4.2 -28.5°
Maximum altitude 22:19:32 26° 1° (N) 1,944 4.3 -27.9°
Drops below altitude 10° 22:25:50 10° 55° (NE) 3,125 6.1 -26.5°
Sets 22:29:29 0° 67° (ENE) 4,188 7.2 -25.7°
